Time,TemperatureF,DewpointF,PressureIn,WindDirection,WindDirectionDegrees,WindSpeedMPH,WindSpeedGustMPH,Humidity,HourlyPrecipIn,Conditions,Clouds,dailyrainin,SoftwareType,DateUTC
2013-07-31 00:00:00,68.5,66.8,30.18,SSW,202,0.0,0.0,94,0.00,,,0.08,VWS V14.01,2013-07-31 04:00:00,
2013-07-31 00:01:00,68.0,66.2,30.18,SSE,158,1.3,1.3,94,0.00,,-RA,0.00,VWS V14.01,2013-07-31 04:01:00,
2013-07-31 00:06:00,67.8,66.0,30.18,SSE,158,2.5,2.5,94,0.00,,-RA,0.00,VWS V14.01,2013-07-31 04:06:00,
2013-07-31 00:11:00,67.8,66.0,30.18,SSE,158,0.0,2.5,94,0.00,,-RA,0.00,VWS V14.01,2013-07-31 04:11:00,
2013-07-31 00:16:00,67.6,65.9,30.18,SW,225,0.0,0.0,94,0.00,,-RA,0.00,VWS V14.01,2013-07-31 04:16:00,
2013-07-31 00:26:00,67.6,65.9,30.18,SW,225,0.0,0.0,94,0.00,,-RA,0.00,VWS V14.01,2013-07-31 04:26:00,
2013-07-31 00:31:00,67.6,65.9,30.18,SSE,158,0.0,0.0,94,0.00,,-RA,0.00,VWS V14.01,2013-07-31 04:31:00,
2013-07-31 00:41:00,67.5,65.7,30.18,SSW,202,0.0,0.0,94,0.00,,-RA,0.00,VWS V14.01,2013-07-31 04:41:00,
2013-07-31 00:46:00,67.5,66.0,30.18,SSW,202,0.0,0.0,95,0.00,,-RA,0.00,VWS V14.01,2013-07-31 04:46:00,
2013-07-31 00:51:00,67.5,66.0,30.18,SSW,202,0.0,0.0,95,0.00,,-RA,0.00,VWS V14.01,2013-07-31 04:51:00,
2013-07-31 00:56:00,67.5,65.7,30.18,SSW,202,0.0,0.0,94,0.00,,-RA,0.00,VWS V14.01,2013-07-31 04:56:00,
2013-07-31 01:01:00,67.5,65.7,30.18,SSW,202,0.0,0.0,94,0.00,,-RA,0.00,VWS V14.01,2013-07-31 05:01:00,
2013-07-31 01:06:00,67.3,65.5,30.18,SSW,202,0.0,0.0,94,0.00,,-RA,0.00,VWS V14.01,2013-07-31 05:06:00,
2013-07-31 01:11:00,67.3,65.5,30.18,SSW,202,0.0,0.0,94,0.00,,-RA,0.00,VWS V14.01,2013-07-31 05:11:00,
2013-07-31 01:16:00,67.1,65.3,30.18,SSW,202,0.0,0.0,94,0.00,,-RA,0.00,VWS V14.01,2013-07-31 05:16:00,
2013-07-31 01:21:00,67.1,65.3,30.18,SSW,202,0.0,0.0,94,0.00,,-RA,0.00,VWS V14.01,2013-07-31 05:21:00,
2013-07-31 01:26:00,67.1,65.6,30.18,SSW,202,0.0,0.0,95,0.00,,-RA,0.00,VWS V14.01,2013-07-31 05:26:00,
2013-07-31 01:31:00,66.9,65.1,30.18,SSE,158,0.0,0.0,94,0.00,,-RA,0.00,VWS V14.01,2013-07-31 05:31:00,
2013-07-31 01:36:00,66.9,65.1,30.18,SSE,158,0.0,0.0,94,0.00,,-RA,0.00,VWS V14.01,2013-07-31 05:36:00,
2013-07-31 01:41:00,66.7,64.7,30.18,ESE,112,0.0,0.0,93,0.00,,-RA,0.00,VWS V14.01,2013-07-31 05:41:00,
2013-07-31 01:46:00,66.7,64.7,30.18,SSE,158,0.0,0.0,93,0.00,,-RA,0.00,VWS V14.01,2013-07-31 05:46:00,
2013-07-31 01:51:00,66.6,64.5,30.18,SSE,158,0.0,0.0,93,0.00,,-RA,0.00,VWS V14.01,2013-07-31 05:51:00,
2013-07-31 01:56:00,66.6,64.5,30.18,SSE,158,0.0,0.0,93,0.00,,-RA,0.00,VWS V14.01,2013-07-31 05:56:00,
2013-07-31 02:01:00,66.6,64.5,30.15,SSE,158,0.0,0.0,93,0.00,,-RA,0.00,VWS V14.01,2013-07-31 06:01:00,
2013-07-31 02:06:00,66.6,64.8,30.15,SSW,202,0.0,0.0,94,0.00,,-RA,0.00,VWS V14.01,2013-07-31 06:06:00,
2013-07-31 02:11:00,66.6,64.8,30.15,SE,135,1.6,1.6,94,0.00,,-RA,0.00,VWS V14.01,2013-07-31 06:11:00,
2013-07-31 02:16:00,66.6,64.8,30.15,ESE,112,0.0,1.6,94,0.00,,-RA,0.00,VWS V14.01,2013-07-31 06:16:00,
2013-07-31 02:21:00,66.6,64.5,30.15,South,180,2.0,2.0,93,0.00,,-RA,0.00,VWS V14.01,2013-07-31 06:21:00,
2013-07-31 02:26:00,66.7,65.0,30.15,ESE,112,2.7,2.7,94,0.00,,-RA,0.00,VWS V14.01,2013-07-31 06:26:00,
2013-07-31 02:31:00,66.7,65.0,30.15,SW,225,0.0,2.7,94,0.00,,-RA,0.00,VWS V14.01,2013-07-31 06:31:00,
2013-07-31 02:36:00,66.7,65.3,30.15,SW,225,0.0,0.0,95,0.00,,-RA,0.00,VWS V14.01,2013-07-31 06:36:00,
2013-07-31 02:41:00,66.9,65.4,30.15,SW,225,0.0,0.0,95,0.00,,,0.00,VWS V14.01,2013-07-31 06:41:00,
2013-07-31 02:46:00,66.9,65.8,30.15,SSW,202,0.0,0.0,96,0.00,,-RA,0.00,VWS V14.01,2013-07-31 06:46:00,
2013-07-31 02:51:00,66.9,65.8,30.15,SSW,202,0.0,0.0,96,0.00,,-RA,0.00,VWS V14.01,2013-07-31 06:51:00,
2013-07-31 02:56:00,66.6,64.5,30.18,SSE,158,0.0,0.0,93,0.00,,,0.00,VWS V14.01,2013-07-31 06:56:00,
2013-07-31 03:01:00,67.1,65.9,30.15,SE,135,0.0,0.0,96,0.00,,-RA,0.00,VWS V14.01,2013-07-31 07:01:00,
2013-07-31 03:06:00,66.6,64.8,30.15,SSW,202,0.0,0.0,94,0.00,,,0.00,VWS V14.01,2013-07-31 07:06:00,
2013-07-31 03:11:00,66.6,64.8,30.15,SE,135,1.6,1.6,94,0.00,,,0.00,VWS V14.01,2013-07-31 07:11:00,
2013-07-31 03:16:00,66.6,64.8,30.15,ESE,112,0.0,1.6,94,0.00,,,0.00,VWS V14.01,2013-07-31 07:16:00,
2013-07-31 03:21:00,66.6,64.5,30.15,South,180,2.0,2.0,93,0.00,,,0.00,VWS V14.01,2013-07-31 07:21:00,
2013-07-31 03:26:00,66.7,65.0,30.15,ESE,112,2.7,2.7,94,0.00,,,0.00,VWS V14.01,2013-07-31 07:26:00,
2013-07-31 03:31:00,66.7,65.0,30.15,SW,225,0.0,2.7,94,0.00,,,0.00,VWS V14.01,2013-07-31 07:31:00,
2013-07-31 03:36:00,66.7,65.3,30.15,SW,225,0.0,0.0,95,0.00,,,0.00,VWS V14.01,2013-07-31 07:36:00,
2013-07-31 03:41:00,66.9,65.4,30.15,SW,225,0.0,0.0,95,0.00,,,0.00,VWS V14.01,2013-07-31 07:41:00,
2013-07-31 03:46:00,66.9,65.8,30.15,SSW,202,0.0,0.0,96,0.00,,,0.00,VWS V14.01,2013-07-31 07:46:00,
2013-07-31 03:51:00,66.9,65.8,30.15,SSW,202,0.0,0.0,96,0.00,,,0.00,VWS V14.01,2013-07-31 07:51:00,
2013-07-31 07:46:00,70.3,69.8,30.06,North,0,0.0,4.3,98,0.00,,,0.00,VWS V14.01,2013-07-31 11:46:00,
2013-07-31 12:44:00,67.1,65.9,30.09,SE,135,0.0,0.0,96,0.00,,-RA,0.08,VWS V14.01,2013-07-31 16:44:00,
2013-07-31 12:49:00,73.4,66.5,30.09,ESE,112,2.0,2.7,79,0.00,,OVC016,0.00,VWS V14.01,2013-07-31 16:49:00,
2013-07-31 12:54:00,73.6,66.7,30.09,SSE,158,1.1,3.1,79,0.00,,OVC016,0.00,VWS V14.01,2013-07-31 16:54:00,
2013-07-31 12:59:00,73.9,67.0,30.09,SSE,158,2.0,2.5,79,0.00,,OVC016,0.00,VWS V14.01,2013-07-31 16:59:00,
2013-07-31 13:00:00,73.9,67.0,30.09,SSW,202,2.5,3.1,79,0.00,,,0.00,VWS V14.01,2013-07-31 17:00:00,
2013-07-31 13:04:00,74.1,66.8,30.09,SSE,158,2.0,2.7,78,0.00,,OVC018,0.00,VWS V14.01,2013-07-31 17:04:00,
2013-07-31 13:09:00,74.1,66.5,30.09,South,180,1.6,3.6,77,0.00,,OVC018,0.00,VWS V14.01,2013-07-31 17:09:00,
2013-07-31 13:14:00,74.1,66.5,30.12,ESE,112,3.8,4.0,77,0.00,,OVC018,0.00,VWS V14.01,2013-07-31 17:14:00,
2013-07-31 13:19:00,73.9,65.9,30.12,ESE,112,2.7,4.0,76,0.00,,OVC018,0.00,VWS V14.01,2013-07-31 17:19:00,
2013-07-31 13:24:00,73.9,66.3,30.12,SSW,202,1.6,4.0,77,0.00,,OVC018,0.00,VWS V14.01,2013-07-31 17:24:00,
2013-07-31 13:29:00,73.9,65.9,30.12,South,180,0.0,4.0,76,0.00,,OVC018,0.00,VWS V14.01,2013-07-31 17:29:00,
2013-07-31 13:34:00,73.9,65.9,30.12,South,180,0.0,4.0,76,0.00,,OVC018,0.00,VWS V14.01,2013-07-31 17:34:00,
2013-07-31 13:39:00,73.8,65.7,30.12,South,180,0.0,4.0,76,0.00,,OVC018,0.00,VWS V14.01,2013-07-31 17:39:00,
2013-07-31 13:44:00,74.1,66.5,30.09,South,180,1.6,4.0,77,0.00,,OVC018,0.00,VWS V14.01,2013-07-31 17:44:00,
2013-07-31 13:49:00,74.5,66.8,30.09,South,180,0.0,4.0,77,0.00,,OVC018,0.00,VWS V14.01,2013-07-31 17:49:00,
2013-07-31 13:54:00,74.7,66.6,30.09,SSE,158,0.0,4.0,76,0.00,,OVC018,0.00,VWS V14.01,2013-07-31 17:54:00,
2013-07-31 13:59:00,74.8,66.4,30.09,SE,135,2.2,4.0,75,0.00,,OVC018,0.00,VWS V14.01,2013-07-31 17:59:00,
2013-07-31 14:00:00,74.8,66.4,30.09,SSW,202,2.5,4.0,75,0.00,,,0.00,VWS V14.01,2013-07-31 18:00:00,
2013-07-31 14:04:00,75.2,66.3,30.09,WSW,248,0.0,2.5,74,0.00,,OVC018,0.00,VWS V14.01,2013-07-31 18:04:00,
2013-07-31 14:09:00,75.4,66.1,30.09,South,180,0.0,2.9,73,0.00,,OVC018,0.00,VWS V14.01,2013-07-31 18:09:00,
2013-07-31 14:14:00,75.6,66.3,30.06,South,180,1.3,2.9,73,0.00,,OVC018,0.00,VWS V14.01,2013-07-31 18:14:00,
2013-07-31 14:19:00,75.6,65.9,30.06,South,180,2.0,2.9,72,0.00,,OVC012,0.00,VWS V14.01,2013-07-31 18:19:00,
2013-07-31 14:24:00,75.4,64.9,30.06,South,180,1.3,2.9,70,0.00,,OVC012,0.00,VWS V14.01,2013-07-31 18:24:00,
2013-07-31 14:29:00,75.2,64.8,30.06,South,180,1.6,2.9,70,0.04,,OVC012,0.04,VWS V14.01,2013-07-31 18:29:00,
2013-07-31 14:34:00,75.0,65.4,30.06,SSW,202,0.0,2.9,72,0.04,,OVC012,0.04,VWS V14.01,2013-07-31 18:34:00,
2013-07-31 14:39:00,74.7,64.6,30.06,South,180,1.6,2.9,71,0.04,,OVC012,0.04,VWS V14.01,2013-07-31 18:39:00,
2013-07-31 14:44:00,74.5,64.5,30.09,SSW,202,2.2,2.9,71,0.04,,OVC012,0.04,VWS V14.01,2013-07-31 18:44:00,
2013-07-31 14:49:00,74.3,64.3,30.09,SSW,202,2.7,2.9,71,0.04,,OVC012,0.04,VWS V14.01,2013-07-31 18:49:00,
2013-07-31 14:54:00,74.1,64.5,30.09,SSW,202,1.1,2.9,72,0.04,,OVC012,0.04,VWS V14.01,2013-07-31 18:54:00,
2013-07-31 14:59:00,74.1,64.9,30.06,SSE,158,0.0,0.0,73,0.04,,OVC012,0.04,VWS V14.01,2013-07-31 18:59:00,
2013-07-31 15:00:00,74.1,64.9,30.06,SSE,158,0.0,2.9,73,0.04,,,0.04,VWS V14.01,2013-07-31 19:00:00,
2013-07-31 15:04:00,74.1,64.9,30.06,South,180,0.0,0.0,73,0.04,,OVC011,0.04,VWS V14.01,2013-07-31 19:04:00,
2013-07-31 15:09:00,74.3,65.1,30.06,SSE,158,0.0,0.0,73,0.04,,OVC011,0.04,VWS V14.01,2013-07-31 19:09:00,
2013-07-31 15:14:00,74.7,65.0,30.06,NE,45,0.0,0.0,72,0.04,,OVC011,0.04,VWS V14.01,2013-07-31 19:14:00,
2013-07-31 15:19:00,74.8,64.8,30.06,North,0,0.0,0.0,71,0.04,,OVC011,0.04,VWS V14.01,2013-07-31 19:19:00,
2013-07-31 15:24:00,75.2,64.8,30.06,North,0,0.0,0.0,70,0.04,,OVC011,0.04,VWS V14.01,2013-07-31 19:24:00,
2013-07-31 15:29:00,75.7,65.7,30.06,SSE,158,2.2,2.5,71,0.04,,OVC011,0.04,VWS V14.01,2013-07-31 19:29:00,
2013-07-31 15:34:00,76.1,65.2,30.06,East,90,0.0,2.5,69,0.04,,OVC011,0.04,VWS V14.01,2013-07-31 19:34:00,
2013-07-31 15:39:00,76.1,64.8,30.06,SSE,158,0.0,2.5,68,0.04,,OVC011,0.04,VWS V14.01,2013-07-31 19:39:00,
2013-07-31 15:44:00,76.3,64.9,30.06,South,180,0.0,2.5,68,0.04,,OVC011,0.04,VWS V14.01,2013-07-31 19:44:00,
2013-07-31 15:49:00,76.1,64.8,30.06,SSW,202,0.0,2.5,68,0.04,,OVC011,0.04,VWS V14.01,2013-07-31 19:49:00,
2013-07-31 15:54:00,76.1,64.8,30.06,SSW,202,1.3,2.5,68,0.04,,OVC011,0.04,VWS V14.01,2013-07-31 19:54:00,
2013-07-31 15:59:00,76.1,64.8,30.06,SE,135,0.0,0.0,68,0.00,,OVC011,0.04,VWS V14.01,2013-07-31 19:59:00,
2013-07-31 16:00:00,76.1,64.8,30.06,ESE,112,0.0,2.5,68,0.04,,,0.04,VWS V14.01,2013-07-31 20:00:00,
2013-07-31 16:04:00,76.3,64.9,30.06,NW,315,0.0,0.0,68,0.00,,OVC011,0.04,VWS V14.01,2013-07-31 20:04:00,
2013-07-31 16:09:00,77.2,65.4,30.06,WNW,292,2.2,2.9,67,0.00,,OVC011,0.04,VWS V14.01,2013-07-31 20:09:00,
2013-07-31 16:14:00,77.7,65.0,30.03,NW,315,1.1,2.9,65,0.00,,OVC011,0.04,VWS V14.01,2013-07-31 20:14:00,
2013-07-31 16:19:00,78.1,64.5,30.03,NNW,338,0.9,3.8,63,0.00,,OVC011,0.04,VWS V14.01,2013-07-31 20:19:00,
2013-07-31 16:24:00,78.6,63.1,30.03,North,0,2.0,3.8,59,0.00,,OVC011,0.04,VWS V14.01,2013-07-31 20:24:00,
2013-07-31 16:29:00,79.2,63.6,30.03,NNE,22,2.0,4.0,59,0.00,,OVC011,0.04,VWS V14.01,2013-07-31 20:29:00,
2013-07-31 16:34:00,79.2,62.1,30.03,NNE,22,0.0,4.0,56,0.00,,OVC011,0.04,VWS V14.01,2013-07-31 20:34:00,
2013-07-31 16:39:00,79.3,62.8,30.03,NNW,338,3.6,5.4,57,0.00,,OVC011,0.04,VWS V14.01,2013-07-31 20:39:00,
2013-07-31 16:44:00,79.2,62.1,30.03,NNW,338,3.8,5.6,56,0.00,,OVC011,0.04,VWS V14.01,2013-07-31 20:44:00,
2013-07-31 16:49:00,78.8,61.8,30.03,NNE,22,0.0,5.6,56,0.00,,OVC011,0.04,VWS V14.01,2013-07-31 20:49:00,
2013-07-31 16:54:00,78.4,62.0,30.03,NNE,22,2.5,5.6,57,0.00,,OVC011,0.04,VWS V14.01,2013-07-31 20:54:00,
2013-07-31 16:59:00,77.9,61.5,30.03,NNW,338,3.1,3.8,57,0.00,,OVC011,0.04,VWS V14.01,2013-07-31 20:59:00,
2013-07-31 17:00:00,77.9,61.5,30.03,NNW,338,3.8,5.8,57,0.00,,,0.04,VWS V14.01,2013-07-31 21:00:00,
2013-07-31 17:04:00,77.5,61.6,30.03,North,0,0.0,3.8,58,0.00,,OVC011,0.04,VWS V14.01,2013-07-31 21:04:00,
2013-07-31 17:09:00,77.5,62.6,30.03,NNE,22,0.0,3.8,60,0.00,,OVC011,0.04,VWS V14.01,2013-07-31 21:09:00,
2013-07-31 17:14:00,77.4,62.4,30.03,NNE,22,3.4,4.7,60,0.00,,OVC011,0.04,VWS V14.01,2013-07-31 21:14:00,
2013-07-31 17:19:00,77.0,62.1,30.03,NW,315,1.6,4.7,60,0.00,,OVC016,0.04,VWS V14.01,2013-07-31 21:19:00,
2013-07-31 17:24:00,77.0,62.1,30.03,NNE,22,2.9,4.7,60,0.00,,OVC016,0.04,VWS V14.01,2013-07-31 21:24:00,
2013-07-31 17:29:00,76.6,62.7,30.03,North,0,0.0,4.7,62,0.00,,OVC016,0.04,VWS V14.01,2013-07-31 21:29:00,
2013-07-31 17:34:00,76.8,62.8,30.03,North,0,2.0,4.7,62,0.00,,OVC014,0.04,VWS V14.01,2013-07-31 21:34:00,
2013-07-31 17:39:00,76.8,63.3,30.03,WNW,292,1.6,4.7,63,0.00,,OVC014,0.04,VWS V14.01,2013-07-31 21:39:00,
2013-07-31 17:44:00,76.8,62.8,30.00,NNE,22,3.4,4.7,62,0.00,,OVC014,0.04,VWS V14.01,2013-07-31 21:44:00,
2013-07-31 17:49:00,76.8,63.3,30.00,NNW,338,2.2,4.7,63,0.00,,OVC014,0.04,VWS V14.01,2013-07-31 21:49:00,
2013-07-31 17:54:00,76.6,63.1,30.00,NNW,338,4.0,4.7,63,0.00,,OVC014,0.04,VWS V14.01,2013-07-31 21:54:00,
2013-07-31 17:59:00,76.6,63.1,30.03,North,0,1.1,1.6,63,0.00,,OVC014,0.04,VWS V14.01,2013-07-31 21:59:00,
2013-07-31 18:00:00,76.6,63.1,30.03,North,0,1.3,4.7,63,0.00,,,0.04,VWS V14.01,2013-07-31 22:00:00,
2013-07-31 18:04:00,76.6,63.1,30.03,WNW,292,0.0,2.9,63,0.00,,OVC016,0.04,VWS V14.01,2013-07-31 22:04:00,
2013-07-31 18:09:00,76.8,62.8,30.03,NNE,22,0.0,2.9,62,0.00,,OVC016,0.04,VWS V14.01,2013-07-31 22:09:00,
2013-07-31 18:14:00,76.8,63.3,30.03,ESE,112,0.0,2.9,63,0.00,,OVC016,0.04,VWS V14.01,2013-07-31 22:14:00,
2013-07-31 18:19:00,77.0,63.5,30.03,North,0,0.0,2.9,63,0.00,,OVC018,0.04,VWS V14.01,2013-07-31 22:19:00,
2013-07-31 18:24:00,77.0,63.5,30.03,North,0,2.0,2.9,63,0.00,,OVC018,0.04,VWS V14.01,2013-07-31 22:24:00,
2013-07-31 18:29:00,77.0,63.0,30.03,ENE,68,0.0,2.9,62,0.00,,OVC018,0.04,VWS V14.01,2013-07-31 22:29:00,
2013-07-31 18:34:00,77.0,63.0,30.03,ENE,68,0.0,2.9,62,0.00,,OVC018,0.04,VWS V14.01,2013-07-31 22:34:00,
2013-07-31 18:39:00,76.8,63.3,30.03,South,180,0.9,2.9,63,0.00,,OVC018,0.04,VWS V14.01,2013-07-31 22:39:00,
2013-07-31 18:44:00,76.8,63.3,30.03,NNW,338,2.0,2.9,63,0.00,,OVC018,0.04,VWS V14.01,2013-07-31 22:44:00,
2013-07-31 18:49:00,76.8,63.3,30.03,NNW,338,0.0,2.9,63,0.00,,OVC020,0.04,VWS V14.01,2013-07-31 22:49:00,
2013-07-31 18:54:00,76.5,63.4,30.03,NNW,338,2.2,2.9,64,0.00,,OVC020,0.04,VWS V14.01,2013-07-31 22:54:00,
2013-07-31 18:59:00,76.3,62.8,30.03,NNE,22,2.9,2.9,63,0.00,,OVC020,0.04,VWS V14.01,2013-07-31 22:59:00,
2013-07-31 19:00:00,76.3,62.8,30.03,NNW,338,2.5,2.9,63,0.00,,,0.04,VWS V14.01,2013-07-31 23:00:00,
2013-07-31 19:04:00,76.3,63.2,30.03,NE,45,0.0,2.9,64,0.00,,OVC023,0.04,VWS V14.01,2013-07-31 23:04:00,
2013-07-31 19:09:00,76.1,63.0,30.03,North,0,3.4,4.3,64,0.00,,OVC023,0.04,VWS V14.01,2013-07-31 23:09:00,
2013-07-31 19:14:00,76.1,63.0,30.03,NNW,338,3.1,4.3,64,0.00,,OVC023,0.04,VWS V14.01,2013-07-31 23:14:00,
2013-07-31 19:19:00,75.9,62.9,30.03,NNW,338,2.0,4.3,64,0.00,,OVC023,0.04,VWS V14.01,2013-07-31 23:19:00,
2013-07-31 19:24:00,75.9,62.9,30.03,NNW,338,0.0,4.3,64,0.00,,OVC023,0.04,VWS V14.01,2013-07-31 23:24:00,
2013-07-31 19:29:00,75.7,63.2,30.03,ENE,68,1.6,4.3,65,0.00,,OVC023,0.04,VWS V14.01,2013-07-31 23:29:00,
2013-07-31 19:34:00,75.7,63.2,30.03,North,0,0.0,4.3,65,0.00,,OVC023,0.04,VWS V14.01,2013-07-31 23:34:00,
2013-07-31 19:39:00,75.7,63.2,30.03,NNW,338,0.0,4.3,65,0.00,,OVC023,0.04,VWS V14.01,2013-07-31 23:39:00,
2013-07-31 19:44:00,75.7,63.2,30.03,NNE,22,0.0,4.3,65,0.00,,OVC023,0.04,VWS V14.01,2013-07-31 23:44:00,
2013-07-31 19:49:00,75.7,63.2,30.03,NNE,22,1.3,4.3,65,0.00,,OVC023,0.04,VWS V14.01,2013-07-31 23:49:00,
2013-07-31 19:54:00,75.6,63.4,30.03,East,90,0.0,4.3,66,0.00,,OVC023,0.04,VWS V14.01,2013-07-31 23:54:00,
2013-07-31 19:59:00,75.6,63.4,30.03,WNW,292,1.1,1.3,66,0.00,,OVC023,0.04,VWS V14.01,2013-07-31 23:59:00,
2013-07-31 20:00:00,75.6,63.4,30.03,NNW,338,1.3,4.3,66,0.00,,,0.04,VWS V14.01,2013-08-01 00:00:00,
2013-07-31 20:04:00,75.6,63.4,30.03,North,0,2.2,2.9,66,0.00,,OVC023,0.04,VWS V14.01,2013-08-01 00:04:00,
2013-07-31 20:09:00,75.6,63.4,30.03,NNE,22,0.0,2.9,66,0.00,,OVC023,0.04,VWS V14.01,2013-08-01 00:09:00,
2013-07-31 20:14:00,75.4,63.2,30.00,NNE,22,0.0,2.9,66,0.00,,OVC023,0.04,VWS V14.01,2013-08-01 00:14:00,
2013-07-31 20:19:00,75.4,63.2,30.00,North,0,1.6,2.9,66,0.00,,OVC023,0.04,VWS V14.01,2013-08-01 00:19:00,
2013-07-31 20:24:00,75.4,63.2,30.00,NNE,22,0.0,2.9,66,0.00,,OVC023,0.04,VWS V14.01,2013-08-01 00:24:00,
2013-07-31 20:29:00,75.4,63.2,30.03,NNE,22,0.0,2.9,66,0.00,,OVC023,0.04,VWS V14.01,2013-08-01 00:29:00,
2013-07-31 20:34:00,75.2,63.5,30.03,NNE,22,0.0,2.9,67,0.00,,OVC023,0.04,VWS V14.01,2013-08-01 00:34:00,
2013-07-31 20:39:00,75.2,63.5,30.03,North,0,0.0,2.9,67,0.00,,OVC023,0.04,VWS V14.01,2013-08-01 00:39:00,
2013-07-31 20:44:00,75.0,63.8,30.03,North,0,0.0,2.9,68,0.00,,OVC023,0.04,VWS V14.01,2013-08-01 00:44:00,
2013-07-31 20:49:00,75.0,63.8,30.03,NNE,22,0.0,2.9,68,0.00,,OVC022,0.04,VWS V14.01,2013-08-01 00:49:00,
2013-07-31 20:54:00,74.8,64.0,30.03,ENE,68,0.0,2.9,69,0.00,,OVC022,0.04,VWS V14.01,2013-08-01 00:54:00,
2013-07-31 20:59:00,74.8,64.0,30.03,NNW,338,0.0,2.9,69,0.00,,OVC022,0.04,VWS V14.01,2013-08-01 00:59:00,
2013-07-31 21:00:00,75.6,63.4,30.03,NNW,338,1.3,4.3,66,0.00,,,0.04,VWS V14.01,2013-08-01 01:00:00,
2013-07-31 21:04:00,74.8,64.0,30.03,ESE,112,0.0,2.9,69,0.00,,OVC022,0.04,VWS V14.01,2013-08-01 01:04:00,
2013-07-31 21:09:00,74.7,64.2,30.03,SE,135,0.0,0.0,70,0.00,,OVC022,0.04,VWS V14.01,2013-08-01 01:09:00,
2013-07-31 21:14:00,74.5,64.1,30.03,SSE,158,0.0,0.0,70,0.00,,OVC022,0.04,VWS V14.01,2013-08-01 01:14:00,
2013-07-31 21:19:00,74.3,63.9,30.03,South,180,0.0,0.0,70,0.00,,OVC024,0.04,VWS V14.01,2013-08-01 01:19:00,
2013-07-31 21:24:00,74.3,64.3,30.03,South,180,0.0,0.0,71,0.00,,OVC024,0.04,VWS V14.01,2013-08-01 01:24:00,
2013-07-31 21:29:00,74.1,64.1,30.03,South,180,0.0,0.0,71,0.00,,OVC024,0.04,VWS V14.01,2013-08-01 01:29:00,
2013-07-31 21:34:00,73.9,64.3,30.03,South,180,0.0,0.0,72,0.00,,OVC024,0.04,VWS V14.01,2013-08-01 01:34:00,
2013-07-31 21:39:00,73.8,64.6,30.03,South,180,0.0,0.0,73,0.00,,OVC024,0.04,VWS V14.01,2013-08-01 01:39:00,
2013-07-31 21:44:00,73.6,64.4,30.03,South,180,0.0,0.0,73,0.00,,OVC024,0.04,VWS V14.01,2013-08-01 01:44:00,
2013-07-31 21:49:00,73.4,64.6,30.03,South,180,0.0,0.0,74,0.00,,-RA,0.04,VWS V14.01,2013-08-01 01:49:00,
2013-07-31 21:54:00,73.2,64.8,30.03,South,180,0.0,0.0,75,0.00,,-RA,0.04,VWS V14.01,2013-08-01 01:54:00,
2013-07-31 21:59:00,73.0,65.0,30.03,South,180,0.0,0.0,76,0.00,,-RA,0.04,VWS V14.01,2013-08-01 01:59:00,
2013-07-31 22:00:00,73.0,65.0,30.03,South,180,0.0,0.0,76,0.00,,,0.04,VWS V14.01,2013-08-01 02:00:00,
2013-07-31 22:04:00,72.9,65.2,30.03,South,180,0.0,0.0,77,0.00,,OVC025,0.04,VWS V14.01,2013-08-01 02:04:00,
2013-07-31 22:09:00,72.9,65.6,30.03,South,180,0.0,0.0,78,0.00,,OVC025,0.04,VWS V14.01,2013-08-01 02:09:00,
2013-07-31 22:14:00,72.5,65.3,30.03,South,180,0.0,0.0,78,0.00,,OVC025,0.04,VWS V14.01,2013-08-01 02:14:00,
2013-07-31 22:19:00,72.5,65.6,30.03,South,180,0.0,0.0,79,0.00,,BKN043,0.04,VWS V14.01,2013-08-01 02:19:00,
2013-07-31 22:24:00,72.3,65.4,30.03,SW,225,0.0,0.0,79,0.00,,BKN043,0.04,VWS V14.01,2013-08-01 02:24:00,
2013-07-31 22:29:00,72.1,65.6,30.03,SW,225,0.0,0.0,80,0.00,,BKN043,0.04,VWS V14.01,2013-08-01 02:29:00,
2013-07-31 22:34:00,72.1,65.6,30.03,SW,225,0.0,0.0,80,0.00,,BKN043,0.04,VWS V14.01,2013-08-01 02:34:00,
2013-07-31 22:39:00,72.0,65.8,30.03,SW,225,0.0,0.0,81,0.00,,BKN043,0.04,VWS V14.01,2013-08-01 02:39:00,
2013-07-31 22:44:00,72.0,65.8,30.03,SW,225,0.0,0.0,81,0.00,,BKN043,0.04,VWS V14.01,2013-08-01 02:44:00,
2013-07-31 22:49:00,71.8,66.0,30.03,SW,225,0.0,0.0,82,0.00,,BKN043,0.04,VWS V14.01,2013-08-01 02:49:00,
2013-07-31 22:54:00,71.6,66.2,30.03,SW,225,0.0,0.0,83,0.00,,BKN043,0.04,VWS V14.01,2013-08-01 02:54:00,
2013-07-31 22:59:00,71.6,66.5,30.03,SW,225,0.0,0.0,84,0.00,,BKN043,0.04,VWS V14.01,2013-08-01 02:59:00,
2013-07-31 23:00:00,71.6,66.5,30.03,SW,225,0.0,0.0,84,0.00,,,0.04,VWS V14.01,2013-08-01 03:00:00,
2013-07-31 23:04:00,71.4,66.7,30.03,SW,225,0.0,0.0,85,0.00,,BKN043,0.04,VWS V14.01,2013-08-01 03:04:00,
2013-07-31 23:09:00,71.4,66.7,30.03,SW,225,0.0,0.0,85,0.00,,BKN043,0.04,VWS V14.01,2013-08-01 03:09:00,
2013-07-31 23:14:00,71.2,66.8,30.03,SW,225,0.0,0.0,86,0.00,,BKN043,0.04,VWS V14.01,2013-08-01 03:14:00,
2013-07-31 23:19:00,71.2,66.8,30.03,SW,225,0.0,0.0,86,0.00,,,0.04,VWS V14.01,2013-08-01 03:19:00,
2013-07-31 23:24:00,71.2,67.2,30.03,SW,225,0.0,0.0,87,0.00,,,0.04,VWS V14.01,2013-08-01 03:24:00,
2013-07-31 23:29:00,71.2,67.5,30.03,SW,225,0.0,0.0,88,0.00,,,0.04,VWS V14.01,2013-08-01 03:29:00,
2013-07-31 23:34:00,71.1,67.7,30.03,SW,225,0.0,0.0,89,0.00,,,0.04,VWS V14.01,2013-08-01 03:34:00,
2013-07-31 23:39:00,71.1,67.7,30.03,SW,225,0.0,0.0,89,0.00,,,0.04,VWS V14.01,2013-08-01 03:39:00,
2013-07-31 23:44:00,70.9,67.5,30.03,SW,225,0.0,0.0,89,0.00,,,0.04,VWS V14.01,2013-08-01 03:44:00,
2013-07-31 23:49:00,70.9,67.5,30.03,SW,225,0.0,0.0,89,0.00,,,0.04,VWS V14.01,2013-08-01 03:49:00,
2013-07-31 23:54:00,70.7,67.6,30.03,SW,225,0.0,0.0,90,0.00,,,0.04,VWS V14.01,2013-08-01 03:54:00,
2013-07-31 23:59:00,70.7,67.6,30.03,SW,225,0.0,0.0,90,0.00,,,0.04,VWS V14.01,2013-08-01 03:59:00,